Weather in Medvedevo

Russia / Perm Krai     57°21′15″N   57°29′01″E
temp.,
°C
wind,
m/s
gust,
m/s
humid.,
%
clouds,
%
prec.,
mm/h
press.,
hPa
HPBL,
m
29 june, wed
wed2923:00+6nnw6107576 0.3 1012809
02:00+5nnw61087100 0.0 1011955
05:00+5nnw61390100 0.1 1011780
08:00+7nnw688499 0.0 1012647
11:00+11nnw696924 0.0 10111093
14:00+16nnw79526 0.0 10101775
17:00+17nnw69585 0.0 10102132
20:00+14nw5107211 0.0 1010360
30 june, thu
thu3023:00+9nw39775 0.0 1010135
02:00+7wnw2380100 0.0 101043
05:00+7wnw2282100 0.0 100924
08:00+11wnw2372100 0.0 1009233
11:00+15w226087 0.1 1008720
14:00+16w235098 0.1 10071644
17:00+11nne1287100 1.8 1009210
20:00+12nne228499 0.2 1009357
1 july, fri
fri123:00+9ene2595100 0.2 1010101
02:00+7e3109473 0.0 1011238
05:00+8e51385100 0.0 1012429
08:00+11e5107326 0.0 1014478
11:00+16ene45575 0.0 10141196
14:00+18ene345237 0.0 10131656
17:00+19n335699 0.0 1013942
20:00+15nne2371100 0.0 101355
2 july, sat
sat223:00+11ne227795 0.0 101422
02:00+9e1182100 0.0 101310
05:00+9ne117990 0.0 101310
08:00+13nne117057 0.0 1013161
11:00+17nnw226257 0.0 1012694
14:00+19nw325314 0.0 10111601
17:00+19nnw125465 0.0 1010960
20:00+18n016745 0.0 101011
3 july, sun
sun323:00+15wsw1166100 0.0 100910
02:00+15w2267100 0.0 100814
05:00+14wnw1172100 0.0 100712
08:00+14nw2779100 0.0 1006189
11:00+15nnw5783100 0.6 1005545
14:00+14nnw3890100 1.4 1005440
17:00+16ne468097 2.7 1004715
20:00+13ne589399 3.2 1005463